sat.trackr.live / text

‹ back to catalog

STARLINK-2639

NORAD 48436 · 2021-040J

PAYLOAD ACTIVE UNKNOWN

§ Identity

Operator
Country
US
Launch date
2021-05-09
Launch site
AFETR
Launch vehicle
Mass (kg)
RCS (m²)

Purposes: comms

External: N2YO · Heavens-Above · Gunter

§ Orbital elements

Epoch: 2026-09-19T22:55:00.448320Z

Period
94.01 min
Inclination
53.1605°
Eccentricity
0.0000906
Mean motion
15.31700440 rev/d
Perigee alt
470.1 km
Apogee alt
471.4 km
Semi-major
6,848.9 km
B*
1.5764e-5
RAAN
354.0748°
Arg perigee
82.0323°
Mean anomaly
278.0781°
Rev number
29,644

§ Raw data

STARLINK-26391 48436U 21040J   26262.95486630  .00000124  00000+0  15764-4 0  99942 48436  53.1605 354.0748 0000906  82.0323 278.0781 15.31700440296444

JSON: /api/v1/satellites/48436 · /tle

For live sub-satellite position, see the globe view (requires WebGL).

§ Visibility from observer

Set your observer location to see the next 7 days of passes ≥ 10°. The values pass through the URL so the page stays shareable.

No JS? Fill the form by hand. The geolocation button needs JavaScript.